Location: Lake Crest
(37.6062°N, 88.9176°W)
Time: 10:03:13
(UTC+00:00)

Cosmos 1943 Rocket - Pass Details

Date: 15 December 2019
Orbit: 812 x 844 km, 71.0° (Epoch: 19 January)

Event Time Altitude Azimuth Distance (km) Brightness Sun altitude
Rises 01:11:40 0° 330° (NNW) 3,392 5.6 -29.6°
Reaches altitude 10° 01:14:13 10° 324° (NW) 2,449 4.9 -30.1°
Maximum altitude 01:19:27 42° 255° (WSW) 1,172 3.3 -31.1°
Drops below altitude 10° 01:24:38 10° 186° (S) 2,414 4.7 -32.1°
Sets 01:27:09 0° 179° (S) 3,338 5.4 -32.6°
